FW3809 Weather Reports


Display with metric or nautical units.
time (UTC)temp
F
wind
direction
speed
MPH
gust
MPH
rain 1hr
in
rain 24hr
in
rain mn
in
humidity
%
barometer
mb
20260509032142 74 64 1.0 4.0 0.00 0.04 0.04 99 1009.6
20260509031640 74 64 1.0 4.0 0.00 0.04 0.04 99 1009.5
20260509031141 74 64 1.0 3.0 0.00 0.04 0.04 99 1009.2
20260509030615 74 64 1.0 3.0 0.00 0.04 0.04 99 1009.3
20260509030112 74 64 1.0 4.0 0.00 0.04 0.04 99 1009.5
20260509025612 74 64 2.0 5.0 0.00 0.04 0.04 98 1009.3
20260509025042 74 70 2.0 5.0 0.00 0.04 0.04 98 1009.3
20260509024515 74 70 2.0 4.0 0.00 0.04 0.04 98 1009.1
20260509024013 74 70 2.0 5.0 0.00 0.04 0.04 98 1009.2
20260509023717 74 70 3.0 5.0 0.00 0.04 0.04 98 1009.2
20260509022946 74 75 2.0 5.0 0.00 0.04 0.04 98 1009.2
20260509022416 74 60 2.0 7.0 0.00 0.04 0.04 98 1009.0
20260509021851 74 61 3.0 9.0 0.00 0.04 0.04 97 1008.8
20260509021348 74 46 3.0 9.0 0.00 0.04 0.04 97 1008.8
20260509020823 74 54 3.0 7.0 0.00 0.04 0.04 97 1008.9
20260509020253 74 62 2.0 7.0 0.00 0.04 0.04 97 1008.8
20260509015750 74 79 2.0 7.0 0.00 0.04 0.04 97 1008.8
20260509015247 74 85 2.0 7.0 0.00 0.04 0.04 97 1008.8
20260509014745 74 77 3.0 7.0 0.00 0.04 0.04 97 1008.8
20260509014217 74 55 3.0 6.0 0.00 0.04 0.04 97 1008.5
20260509013714 74 70 2.0 6.0 0.00 0.04 0.04 97 1008.6
20260509013146 75 79 2.0 6.0 0.00 0.04 0.04 97 1008.7
20260509012619 75 86 2.0 6.0 0.00 0.04 0.04 96 1008.7
20260509012140 75 83 1.0 4.0 0.00 0.04 0.04 96 1008.7
20260509011549 75 84 1.0 4.0 0.00 0.04 0.04 96 1008.7
20260509011046 75 83 2.0 6.0 0.00 0.04 0.04 96 1008.7
20260509010520 75 75 2.0 6.0 0.00 0.04 0.04 96 1008.7
20260509010018 75 81 2.0 6.0 0.00 0.04 0.04 96 1008.7
20260509005513 75 85 1.0 6.0 0.00 0.04 0.04 96 1008.6
20260509005010 75 102 1.0 6.0 0.00 0.04 0.04 96 1008.6
20260509004444 75 112 2.0 6.0 0.00 0.04 0.04 96 1008.6
20260509003913 75 100 1.0 5.0 0.00 0.04 0.04 96 1008.5
20260509003642 75 68 2.0 7.0 0.00 0.04 0.04 96 1008.5
20260509002845 75 78 2.0 7.0 0.00 0.04 0.04 96 1008.4
20260509002326 75 59 3.0 10.0 0.00 0.04 0.04 96 1008.5
20260509001751 75 89 3.0 10.0 0.00 0.04 0.04 96 1008.5
20260509001520 75 42 4.0 9.0 0.00 0.04 0.04 96 1008.6
20260509000745 74 77 3.0 8.0 0.00 0.04 0.04 96 1008.5
20260509000243 74 79 3.0 8.0 0.00 0.04 0.04 96 1008.7
20260508235718 74 72 2.0 7.0 0.00 0.04 0.04 97 1008.6
20260508235227 74 75 3.0 8.0 0.00 0.04 0.04 97 1008.6
20260508234955 74 77 3.0 8.0 0.00 0.04 0.04 97 1008.7
20260508234143 74 79 2.0 6.0 0.00 0.04 0.04 97 1008.7
20260508233641 74 74 2.0 4.0 0.00 0.04 0.04 97 1008.9
20260508233116 74 67 1.0 5.0 0.00 0.04 0.04 97 1008.8
20260508232612 74 66 2.0 5.0 0.00 0.04 0.04 97 1009.0
20260508232317 74 66 3.0 5.0 0.00 0.04 0.04 97 1009.0
20260508231543 74 66 2.0 6.0 0.00 0.04 0.04 97 1008.9
20260508231015 74 71 2.0 6.0 0.00 0.04 0.04 97 1008.8
20260508230747 74 68 2.0 5.0 0.00 0.04 0.04 97 1008.8
20260508225956 74 63 2.0 5.0 0.00 0.04 0.04 97 1008.7
20260508225444 74 56 2.0 6.0 0.00 0.04 0.04 97 1008.6
20260508224939 74 58 2.0 6.0 0.00 0.04 0.04 97 1008.6
20260508224438 74 87 1.0 4.0 0.00 0.04 0.04 98 1008.7
20260508223936 74 84 1.0 4.0 0.00 0.04 0.04 98 1008.8
20260508223439 74 73 3.0 9.0 0.00 0.04 0.04 98 1008.7
20260508223434 74 76 1.0 6.0 0.00 0.04 0.04 98 1008.7
20260508222649 74 84 3.0 9.0 0.00 0.04 0.04 98 1008.8
20260508221844 74 73 2.0 8.0 0.00 0.04 0.04 99 1008.8
20260508221326 73 62 3.0 8.0 0.00 0.04 0.04 99 1008.9
20260508220810 73 60 4.0 8.0 0.00 0.04 0.04 99 1008.9
20260508220539 73 80 3.0 8.0 0.00 0.04 0.04 100 1008.8
20260508215807 73 130 3.0 6.0 0.00 0.04 0.04 100 1008.9
20260508215526 73 85 3.0 7.0 0.00 0.04 0.04 100 1008.9
20260508214755 73 73 2.0 7.0 0.00 0.04 0.04 100 1008.9
20260508214234 72 80 1.0 4.0 0.00 0.04 0.04 100 1009.0
20260508213939 72 83 1.0 6.0 0.00 0.04 0.04 100 1009.2
20260508213209 72 82 1.0 6.0 0.00 0.04 0.04 100 1009.2
20260508212920 72 81 1.0 3.0 0.00 0.04 0.04 100 1009.1
20260508212125 72 81 2.0 6.0 0.00 0.04 0.04 100 1009.2
20260508211837 72 82 2.0 6.0 0.00 0.04 0.04 100 1009.3
20260508211039 72 63 2.0 5.0 0.00 0.04 0.04 100 1009.4
20260508210538 71 65 2.0 5.0 0.00 0.04 0.04 100 1009.2
20260508210018 71 68 2.0 5.0 0.00 0.04 0.04 100 1009.2
20260508205456 71 69 2.0 6.0 0.00 0.04 0.04 100 1009.3
20260508204922 71 87 2.0 6.0 0.00 0.04 0.04 100 1009.4
20260508204651 71 85 2.0 4.0 0.00 0.04 0.04 100 1009.4
20260508204355 71 85 2.0 4.0 0.00 0.04 0.04 100 1009.4
20260508203325 71 91 2.0 6.0 0.00 0.04 0.04 100 1009.6
20260508202800 71 89 2.0 6.0 0.00 0.04 0.04 100 1009.4
20260508202505 71 78 2.0 6.0 0.00 0.04 0.04 100 1009.4
20260508201727 71 84 1.0 6.0 0.00 0.04 0.04 100 1009.7
20260508201224 71 97 0.0 4.0 0.00 0.04 0.04 100 1009.6
20260508200658 71 77 0.0 2.0 0.00 0.04 0.04 100 1009.7
20260508200154 71 77 1.0 4.0 0.00 0.04 0.04 100 1009.9
20260508195627 70 80 1.0 4.0 0.00 0.04 0.04 100 1009.9
20260508195123 70 80 1.0 4.0 0.00 0.04 0.04 100 1010.1
20260508194601 70 97 2.0 4.0 0.00 0.04 0.04 100 1010.3
20260508194557 70 80 2.0 4.0 0.00 0.04 0.04 100 1010.2
20260508193527 70 64 2.0 5.0 0.00 0.04 0.04 100 1010.4
20260508193023 70 52 1.0 4.0 0.00 0.04 0.04 100 1010.4
20260508192456 70 41 1.0 5.0 0.00 0.04 0.04 100 1010.5
20260508191953 69 41 2.0 4.0 0.00 0.04 0.04 100 1010.5
20260508191427 69 41 2.0 5.0 0.00 0.04 0.04 100 1010.5
20260508190900 69 41 2.0 5.0 0.00 0.04 0.04 100 1010.6
20260508190357 69 42 2.0 5.0 0.00 0.04 0.04 100 1010.5
20260508185830 69 70 2.0 6.0 0.00 0.04 0.04 100 1010.5
20260508185330 69 64 2.0 6.0 0.00 0.04 0.04 100 1010.6
20260508184801 69 49 3.0 9.0 0.01 0.04 0.04 100 1010.6
20260508184234 69 27 4.0 9.0 0.01 0.04 0.04 100 1010.6
20260508183731 69 63 4.0 9.0 0.01 0.04 0.04 100 1010.5
20260508183438 69 58 3.0 9.0 0.01 0.04 0.04 100 1010.5
20260508182638 69 37 3.0 6.0 0.01 0.04 0.04 100 1010.6
20260508182153 69 49 2.0 5.0 0.01 0.04 0.04 100 1010.9
20260508180514 69 81 3.0 9.0 0.02 0.04 0.04 100 1010.8
20260508175949 69 97 3.0 8.0 0.02 0.04 0.04 100 1011.0
20260508175716 68 90 4.0 8.0 0.02 0.04 0.04 100 1011.1
20260508174943 68 107 2.0 8.0 0.01 0.03 0.04 100 1011.2
20260508174417 68 73 2.0 5.0 0.01 0.03 0.03 100 1011.3
20260508174120 68 70 2.0 5.0 0.01 0.03 0.03 99 1011.4
20260508173346 68 56 2.0 6.0 0.02 0.03 0.03 99 1011.6
20260508172844 68 11 2.0 6.0 0.02 0.03 0.03 99 1011.7
20260508172341 68 48 2.0 6.0 0.02 0.03 0.03 99 1011.7
20260508171839 68 104 2.0 6.0 0.02 0.03 0.03 99 1011.7
20260508171313 68 130 2.0 4.0 0.02 0.03 0.03 99 1011.7
20260508170810 68 80 4.0 9.0 0.01 0.02 0.02 99 1011.7
20260508170306 67 60 4.0 9.0 0.01 0.02 0.02 99 1011.5
20260508165742 67 66 4.0 8.0 0.01 0.02 0.02 99 1011.6
20260508165215 67 61 5.0 10.0 0.01 0.02 0.02 99 1011.6
20260508164650 67 52 5.0 9.0 0.01 0.02 0.02 98 1011.9
20260508164146 67 54 4.0 10.0 0.01 0.02 0.02 98 1011.9
20260508163623 67 54 3.0 10.0 0.00 0.01 0.01 98 1011.9
20260508163106 67 52 3.0 11.0 0.00 0.01 0.01 98 1012.0
20260508162605 67 64 5.0 11.0 0.00 0.01 0.01 98 1012.1
20260508162056 67 39 5.0 11.0 0.00 0.01 0.01 98 1012.3
20260508161554 67 43 5.0 12.0 0.00 0.01 0.01 98 1012.4
20260508161054 67 56 5.0 12.0 0.01 0.01 0.01 98 1012.5
20260508160556 67 55 4.0 10.0 0.01 0.01 0.01 98 1012.5
20260508160033 67 52 4.0 9.0 0.01 0.01 0.01 98 1012.7
20260508155514 67 38 4.0 9.0 0.01 0.01 0.01 97 1012.9
20260508155217 67 28 3.0 6.0 0.01 0.01 0.01 97 1012.9
20260508154433 67 49 3.0 7.0 0.01 0.01 0.01 97 1012.7
20260508154427 67 37 3.0 7.0 0.01 0.01 0.01 97 1012.7
20260508153407 67 22 4.0 11.0 0.01 0.01 0.01 97 1012.6
20260508152847 67 29 4.0 11.0 0.01 0.01 0.01 96 1012.5
20260508152344 67 29 5.0 12.0 0.01 0.01 0.01 96 1012.5
20260508151827 68 43 6.0 12.0 0.01 0.01 0.01 96 1012.5
20260508151330 68 29 7.0 12.0 0.00 0.00 0.00 95 1012.5
20260508150829 68 354 7.0 12.0 0.00 0.00 0.00 94 1012.9
20260508150558 68 27 6.0 13.0 0.00 0.00 0.00 94 1012.6
20260508145826 68 23 5.0 13.0 0.00 0.00 0.00 94 1012.4
20260508145321 69 54 6.0 13.0 0.00 0.00 0.00 93 1012.3
20260508145051 69 70 6.0 13.0 0.00 0.00 0.00 92 1012.3
20260508144253 69 42 5.0 14.0 0.00 0.00 0.00 92 1012.7
20260508143726 69 12 5.0 14.0 0.00 0.00 0.00 91 1012.6
20260508143159 69 354 4.0 12.0 0.00 0.00 0.00 91 1012.9
20260508142655 69 62 5.0 10.0 0.00 0.00 0.00 91 1012.7
20260508142130 69 74 4.0 10.0 0.00 0.00 0.00 91 1012.6
20260508141606 69 22 2.0 7.0 0.00 0.00 0.00 91 1013.0
20260508141037 69 39 2.0 6.0 0.00 0.00 0.00 91 1012.5
20260508140536 69 98 2.0 7.0 0.00 0.00 0.00 91 1012.6
20260508140008 69 93 3.0 7.0 0.00 0.00 0.00 91 1012.2
20260508135441 69 116 3.0 6.0 0.00 0.00 0.00 91 1012.3
20260508134940 69 100 2.0 6.0 0.00 0.00 0.00 91 1012.5
20260508134412 69 83 2.0 7.0 0.00 0.00 0.00 91 1012.5
20260508133845 69 85 2.0 7.0 0.00 0.00 0.00 90 1012.5
20260508133343 69 93 3.0 7.0 0.00 0.00 0.00 90 1012.5
20260508132816 69 73 3.0 7.0 0.00 0.00 0.00 90 1012.3
20260508132312 69 30 2.0 4.0 0.00 0.00 0.00 90 1012.6
20260508131809 69 38 2.0 4.0 0.00 0.00 0.00 90 1012.6
20260508131306 69 56 2.0 5.0 0.00 0.00 0.00 89 1012.5
20260508130759 69 27 2.0 6.0 0.00 0.00 0.00 89 1012.6
20260508130257 69 26 2.0 6.0 0.00 0.00 0.00 89 1012.5
20260508130000 69 45 2.0 5.0 0.00 0.00 0.00 89 1012.7
20260508125227 69 48 2.0 5.0 0.00 0.00 0.00 89 1012.6
20260508124723 69 47 3.0 6.0 0.00 0.00 0.00 90 1012.6
20260508124220 69 29 3.0 7.0 0.00 0.00 0.00 90 1012.5
20260508123653 69 32 3.0 7.0 0.00 0.00 0.00 90 1012.3
20260508123422 69 32 3.0 6.0 0.00 0.00 0.00 90 1012.3
20260508122624 69 38 2.0 6.0 0.00 0.00 0.00 91 1012.2
20260508122120 68 62 3.0 6.0 0.00 0.00 0.00 91 1012.3
20260508121553 68 52 3.0 7.0 0.00 0.00 0.00 91 1012.5
20260508121049 68 25 3.0 9.0 0.00 0.00 0.00 91 1012.8
20260508120525 68 354 4.0 9.0 0.00 0.00 0.00 91 1012.8
20260508115957 68 36 5.0 11.0 0.00 0.00 0.00 91 1012.6
20260508115453 68 30 3.0 10.0 0.00 0.00 0.00 91 1012.6
20260508114928 68 21 4.0 10.0 0.00 0.00 0.00 92 1012.7
20260508114402 68 29 5.0 10.0 0.00 0.00 0.00 92 1012.6
20260508113858 68 14 5.0 11.0 0.00 0.00 0.00 92 1012.6
20260508113627 68 37 5.0 11.0 0.00 0.00 0.00 92 1012.6
20260508113123 68 48 3.0 10.0 0.00 0.00 0.00 92 1012.5
20260508112336 68 27 4.0 11.0 0.00 0.00 0.00 92 1012.4
20260508112331 68 43 6.0 11.0 0.00 0.00 0.00 92 1012.1
20260508111256 68 65 6.0 10.0 0.00 0.00 0.00 92 1012.1
20260508110751 68 58 4.0 9.0 0.00 0.00 0.00 92 1012.3
20260508110226 68 93 4.0 9.0 0.00 0.00 0.00 92 1012.3
20260508105727 68 58 3.0 9.0 0.00 0.00 0.00 92 1012.4
20260508105224 68 33 3.0 9.0 0.00 0.00 0.00 93 1012.6
20260508104725 69 26 3.0 9.0 0.00 0.00 0.00 93 1012.5
20260508104223 68 53 3.0 9.0 0.00 0.00 0.00 93 1012.5
20260508103723 69 53 3.0 9.0 0.00 0.00 0.00 93 1012.3
20260508103451 68 14 3.0 7.0 0.00 0.00 0.00 93 1012.1
20260508102930 68 30 3.0 8.0 0.00 0.00 0.00 93 1011.9
20260508102146 69 52 3.0 9.0 0.00 0.00 0.00 93 1011.9
20260508101647 69 73 3.0 6.0 0.00 0.00 0.00 93 1012.1
20260508101131 69 46 3.0 8.0 0.00 0.00 0.00 93 1012.2
20260508100633 69 39 3.0 8.0 0.00 0.00 0.00 93 1012.1
20260508100119 69 18 4.0 9.0 0.00 0.00 0.00 93 1012.3
20260508095830 69 29 4.0 8.0 0.00 0.00 0.00 92 1012.2
20260508095044 69 34 3.0 9.0 0.00 0.00 0.00 92 1012.4
20260508094543 69 39 4.0 9.0 0.00 0.00 0.00 92 1012.1
20260508094045 69 69 5.0 9.0 0.00 0.00 0.00 92 1011.6
20260508093527 69 85 4.0 11.0 0.00 0.00 0.00 91 1011.7
20260508093028 69 77 4.0 11.0 0.00 0.00 0.00 91 1011.8
20260508092505 69 79 4.0 11.0 0.00 0.00 0.00 90 1011.9
20260508092004 69 60 5.0 11.0 0.00 0.00 0.00 90 1011.9
20260508091440 69 73 5.0 11.0 0.00 0.00 0.00 89 1011.9
20260508090916 69 85 4.0 9.0 0.00 0.00 0.00 88 1011.9
20260508090627 70 27 3.0 7.0 0.00 0.00 0.00 88 1012.1
20260508090333 70 22 3.0 8.0 0.00 0.00 0.00 88 1012.3
20260508085306 70 40 3.0 8.0 0.00 0.00 0.00 88 1012.3
20260508084800 70 37 3.0 10.0 0.00 0.00 0.00 87 1012.3
20260508084257 70 49 4.0 10.0 0.00 0.00 0.00 87 1012.3
20260508083731 70 38 4.0 10.0 0.00 0.00 0.00 87 1012.2
20260508083229 70 61 4.0 10.0 0.00 0.00 0.00 87 1012.4
20260508082725 70 56 4.0 9.0 0.00 0.00 0.00 86 1012.5
20260508082203 70 39 4.0 9.0 0.00 0.00 0.00 86 1012.3
20260508081633 70 35 4.0 10.0 0.00 0.00 0.00 86 1012.2
20260508081106 70 21 4.0 10.0 0.00 0.00 0.00 86 1012.2
20260508080813 70 28 5.0 10.0 0.00 0.00 0.00 86 1012.3
20260508080016 71 25 4.0 10.0 0.00 0.00 0.00 86 1012.3
20260508075448 71 52 3.0 6.0 0.00 0.00 0.00 85 1012.3
20260508074945 71 9 4.0 8.0 0.00 0.00 0.00 85 1012.5
20260508074418 71 37 4.0 8.0 0.00 0.00 0.00 85 1012.7
20260508073915 71 27 3.0 8.0 0.00 0.00 0.00 85 1012.6
20260508073620 71 31 3.0 8.0 0.00 0.00 0.00 85 1012.6
20260508072844 71 32 2.0 6.0 0.00 0.00 0.00 85 1012.5
20260508072342 71 43 2.0 6.0 0.00 0.00 0.00 85 1012.3
20260508071815 71 48 3.0 6.0 0.00 0.00 0.00 85 1012.3
20260508071248 71 53 2.0 6.0 0.00 0.00 0.00 85 1012.5
20260508070723 71 48 2.0 5.0 0.00 0.00 0.00 85 1012.6
20260508070159 71 60 3.0 7.0 0.00 0.00 0.00 84 1012.6
20260508065653 71 38 3.0 7.0 0.00 0.00 0.00 84 1012.5
20260508065124 71 51 3.0 7.0 0.00 0.00 0.00 84 1012.5
20260508064624 71 53 3.0 9.0 0.00 0.00 0.00 84 1012.6
20260508064054 71 45 4.0 9.0 0.00 0.00 0.00 84 1012.5
20260508063553 71 64 4.0 9.0 0.00 0.00 0.00 84 1012.4
20260508063024 71 68 4.0 9.0 0.00 0.00 0.00 84 1012.7
20260508062522 71 72 4.0 9.0 0.00 0.00 0.00 84 1012.8
20260508061954 71 72 3.0 7.0 0.00 0.00 0.00 83 1012.7
20260508061452 71 61 4.0 8.0 0.00 0.00 0.00 83 1012.9
20260508060924 71 82 4.0 8.0 0.00 0.00 0.00 83 1012.9
20260508060421 71 69 3.0 7.0 0.00 0.00 0.00 83 1013.0
20260508055855 71 73 3.0 7.0 0.00 0.00 0.00 83 1012.8
20260508055600 71 55 4.0 7.0 0.00 0.00 0.00 83 1012.8
20260508054803 71 77 3.0 7.0 0.00 0.00 0.00 83 1012.6
20260508054259 71 58 4.0 9.0 0.00 0.00 0.00 83 1012.8
20260508053801 71 67 3.0 9.0 0.00 0.00 0.00 82 1012.8
20260508053258 71 64 4.0 9.0 0.00 0.00 0.00 82 1012.6
20260508052750 72 75 4.0 9.0 0.00 0.00 0.00 82 1012.7
20260508052246 72 50 4.0 9.0 0.00 0.00 0.00 82 1012.6
20260508051745 72 70 4.0 10.0 0.00 0.00 0.00 82 1012.5
20260508051243 72 78 4.0 10.0 0.00 0.00 0.00 82 1012.6
20260508050740 72 14 4.0 9.0 0.00 0.00 0.00 82 1012.7
20260508050212 72 43 4.0 8.0 0.00 0.00 0.00 82 1012.6
20260508045712 73 26 4.0 9.0 0.00 0.00 0.00 82 1012.6
20260508045210 73 16 4.0 9.0 0.00 0.00 0.00 82 1012.7
20260508044704 73 56 4.0 9.0 0.00 0.00 0.00 82 1012.6
20260508044201 73 37 3.0 9.0 0.00 0.00 0.00 82 1012.6
20260508043634 73 52 4.0 8.0 0.00 0.00 0.00 82 1012.7
20260508043132 73 48 4.0 10.0 0.00 0.00 0.00 81 1012.8
20260508042833 73 21 4.0 9.0 0.00 0.00 0.00 81 1012.8
20260508042034 73 53 3.0 9.0 0.00 0.00 0.00 81 1012.8
20260508041510 74 65 4.0 12.0 0.00 0.00 0.00 81 1012.8
20260508040942 74 75 5.0 12.0 0.00 0.00 0.00 81 1012.6
20260508040712 74 64 6.0 12.0 0.00 0.00 0.00 81 1012.3
20260508040144 74 72 5.0 12.0 0.00 0.00 0.00 80 1012.3
20260508035410 74 85 6.0 12.0 0.00 0.00 0.00 80 1012.6
20260508034857 74 84 5.0 12.0 0.00 0.00 0.00 80 1012.6
20260508034354 74 66 4.0 10.0 0.00 0.00 0.00 79 1012.9
20260508033853 74 24 4.0 10.0 0.00 0.00 0.00 79 1013.2
20260508033353 74 50 4.0 10.0 0.00 0.00 0.00 79 1013.1
20260508032832 74 44 4.0 9.0 0.00 0.00 0.00 79 1013.4
20260508032534 74 62 3.0 9.0 0.00 0.00 0.00 79 1013.5